Location: Newark
(50.4348°N, 30.5552°E)
Time: 15:24:55
(UTC+00:00)

Tiros 1 despin weight - Pass Details

Date: 30 January 2020
Orbit: 594 x 642 km, 48.2° (Epoch: 16 February)

Event Time Altitude Azimuth Distance (km) Brightness Sun altitude
Rises 11:04:22 0° 274° (W) 2,876 ? 20.8°
Reaches altitude 10° 11:06:40 10° 270° (W) 1,978 ? 20.7°
Maximum altitude 11:11:09 59° 192° (SSW) 721 ? 20.6°
Drops below altitude 10° 11:15:41 10° 113° (ESE) 2,005 ? 20.4°
Sets 11:18:02 0° 109° (ESE) 2,919 ? 20.2°
